GEFSMA_con_cape1000_144.txt.gz
Probability
81 71 77 77 45 61 65 61 35 42 45 32 35 32 29 23 13 26 68 81 77 77 81 65 65 68 68 74 71 68 65 68 61 58 45 48 39 32 32 29 19 19 10
81 74 81 77 42 35 32 39 29 58 35 39 26 35 32 29 26 39 39 61 77 74 74 61 58 68 65 71 68 61 65 65 65 58 55 48 48 39 42 26 16 13 10
81 71 65 71 42 42 61 55 42 39 42 35 32 29 32 39 32 29 29 42 52 68 77 74 61 55 61 61 68 61 71 74 77 68 65 58 55 55 48 42 39 29 23
74 77 61 45 55 42 42 48 32 29 19 16 35 35 32 48 29 26 26 35 39 35 58 71 65 68 65 42 42 65 74 74 74 71 74 65 55 61 58 52 42 35 39
68 61 61 61 61 39 39 19 23 23 23 23 13 32 16 23 26 16 19 13 19 29 39 65 71 71 55 39 48 52 65 77 74 77 74 65 61 71 68 61 65 52 35
71 48 61 74 45 42 39 45 42 55 35 35 0 10 10 19 13 10 16 16 19 13 16 16 35 45 61 55 61 58 58 68 71 68 61 58 58 68 74 68 74 48 39
61 68 45 77 65 48 52 23 42 39 32 39 23 13 13 6 10 16 13 16 13 10 16 19 26 29 42 48 58 65 58 61 71 77 71 61 61 65 65 55 61 55 39
61 55 77 65 65 74 61 52 55 35 39 32 16 19 19 23 19 3 13 16 13 10 10 13 26 39 26 29 23 45 55 58 58 71 71 68 65 68 61 52 48 39 32
58 61 65 58 71 45 45 55 58 48 39 19 23 16 16 13 10 10 6 10 13 13 13 10 13 32 29 29 29 23 45 55 48 61 61 68 68 55 48 52 55 45 35
61 55 65 68 68 45 61 48 39 45 52 42 23 19 13 6 6 6 13 10 13 13 6 10 3 13 26 29 39 10 26 48 48 42 55 61 52 48 39 39 45 55 48
45 48 61 58 58 55 55 48 52 52 45 45 26 16 13 16 10 10 10 3 6 3 10 13 10 10 16 19 45 13 10 16 19 39 52 61 58 61 48 42 42 42 48
55 52 52 55 52 42 45 48 52 58 48 45 42 19 16 23 23 19 10 13 13 0 6 10 10 16 10 6 6 6 6 3 0 3 10 39 55 55 48 52 52 45 32
42 58 45 58 48 45 45 52 52 45 45 48 45 35 23 16 13 19 6 6 10 10 3 6 10 13 6 0 16 0 0 0 0 0 0 0 0 16 29 48 45 32 32
45 48 48 52 45 42 35 55 39 35 52 48 26 39 29 19 13 13 16 10 6 6 3 3 6 6 6 0 0 0 3 0 0 0 0 0 0 0 0 0 3 10 16
45 42 45 45 45 42 42 58 42 48 48 39 29 32 19 19 16 16 13 23 16 6 10 10 3 6 6 16 3 10 23 0 0 0 0 0 0 0 0 0 0 0 0
45 45 39 42 42 45 45 58 45 39 42 42 39 39 32 23 19 10 13 16 19 10 6 3 16 6 10 0 3 13 19 3 0 0 0 0 0 0 0 0 0 0 0
42 42 39 45 32 32 32 45 35 35 32 32 29 26 29 29 19 16 13 16 19 10 10 10 10 13 23 16 13 23 19 23 6 0 0 0 0 0 0 0 0 0 0
35 39 29 23 29 23 29 32 26 29 29 32 29 26 29 19 26 19 26 13 16 19 13 10 16 16 23 23 23 42 3 0 6 0 0 0 0 0 0 0 0 0 0
39 26 19 23 13 13 19 16 13 16 16 26 23 26 19 16 19 16 26 19 26 6 10 6 6 16 13 19 23 23 3 29 0 0 0 0 0 0 0 0 0 0 0
42 39 26 19 16 16 10 10 6 16 19 16 13 10 10 10 6 19 6 23 19 26 23 16 13 13 23 13 19 23 19 16 10 0 0 0 0 0 0 0 0 0 0
23 26 16 13 13 13 13 6 10 10 13 19 13 10 6 0 0 0 0 13 6 16 26 23 13 13 6 10 3 6 10 13 13 6 3 3 0 0 0 0 0 0 0
19 16 19 13 13 6 3 0 3 10 10 13 19 13 10 3 0 0 0 0 0 3 3 3 10 10 6 6 3 3 10 3 3 10 3 3 6 3 0 0 0 0 0
19 19 10 6 6 6 0 0 0 3 10 10 13 16 10 0 0 3 0 0 0 0 0 0 3 3 3 3 3 3 13 6 6 6 13 3 6 6 3 0 0 0 0
19 23 16 6 6 6 0 0 0 0 6 6 10 10 13 10 3 3 6 6 3 3 0 0 0 0 3 3 6 6 10 6 6 10 10 10 10 10 0 3 0 0 0
23 19 13 13 16 3 0 0 0 3 6 10 6 0 3 3 0 0 0 3 3 3 0 0 0 0 0 0 0 0 0 0 0 0 3 3 0 0 3 3 6 0 0
23 19 16 6 3 3 0 0 0 3 6 6 6 6 0 0 0 0 0 0 0 0 0 0 0 0 0 0 0 0 0 0 0 0 0 0 0 3 0 3 3 3 0

GEFSMA_con_cape1000_150.txt.gz
Probability
87 87 87 87 94 94 90 84 81 74 71 65 55 52 39 39 52 35 42 90 90 81 84 61 61 65 61 68 65 58 48 52 61 52 52 45 42 39 35 23 16 19 10
87 87 90 90 90 97 90 94 77 77 77 84 77 61 45 55 61 55 39 74 84 84 84 68 68 61 58 65 65 65 61 52 55 55 48 48 48 42 48 39 23 19 23
90 90 87 87 84 90 87 90 84 81 77 84 84 71 71 65 58 58 48 45 45 77 81 71 71 65 61 55 61 55 68 61 61 58 58 58 65 58 55 45 39 32 23
87 87 90 87 87 90 90 94 84 74 84 81 81 77 71 81 74 68 65 55 42 23 61 77 77 71 65 61 55 55 65 68 68 68 71 74 74 58 58 61 52 42 29
84 90 87 87 81 87 87 81 84 81 87 81 74 74 71 71 65 48 65 58 55 48 29 61 84 81 77 71 68 65 74 71 74 65 65 61 55 68 68 65 68 65 45
87 87 87 87 77 81 81 84 84 81 81 87 26 26 48 65 68 55 52 39 52 45 29 19 48 58 74 77 81 84 74 77 68 68 68 65 65 71 77 74 71 65 55
84 90 81 87 77 84 77 65 68 71 77 84 74 39 48 42 45 58 42 32 32 35 32 45 29 35 26 71 77 87 84 74 81 81 74 71 68 68 68 68 68 58 55
90 65 90 84 81 87 84 81 81 77 65 65 74 35 26 29 39 10 45 42 35 39 35 29 45 55 42 23 19 65 84 81 77 71 81 84 74 68 68 55 52 52 52
87 87 87 77 87 84 84 87 84 77 68 55 55 42 19 23 29 42 32 26 45 45 35 26 45 65 52 42 32 23 65 77 77 68 74 77 77 65 58 52 48 45 35
74 77 81 77 81 90 90 81 71 84 68 55 55 55 42 29 19 26 23 35 35 39 32 13 13 39 52 48 48 26 35 52 68 71 74 74 74 58 45 45 52 52 52
74 68 77 81 77 84 87 81 77 77 77 55 55 42 45 42 23 16 10 23 29 39 42 35 35 32 39 32 39 19 13 26 32 58 68 68 68 65 52 48 42 45 48
74 71 74 84 87 87 90 81 74 71 74 68 68 55 35 32 23 23 10 16 16 16 26 29 35 29 32 26 26 19 16 10 6 13 23 48 58 65 55 52 48 45 48
68 77 71 84 84 81 81 84 77 74 68 61 58 58 52 35 39 32 19 26 19 29 39 39 35 35 13 32 42 16 6 0 0 0 0 3 16 29 35 58 48 52 55
58 65 61 58 65 71 58 65 65 68 65 65 42 58 65 42 39 35 26 23 13 23 32 32 39 35 23 32 35 0 0 0 0 0 0 0 0 0 3 3 6 16 23
48 52 48 55 52 58 65 65 68 68 68 65 52 55 52 45 35 39 42 26 16 3 10 23 32 32 42 35 0 0 26 0 0 0 0 0 0 0 0 0 0 0 0
61 65 55 52 52 52 58 55 55 65 65 61 61 58 61 42 42 39 29 29 26 26 16 29 32 29 35 10 3 16 26 3 0 0 0 0 0 0 0 0 0 0 0
58 65 55 52 48 45 48 52 55 52 48 48 42 39 39 42 45 42 42 39 35 35 23 23 32 45 29 29 6 29 16 16 3 0 0 0 0 0 0 0 0 0 0
61 55 58 48 42 35 45 45 35 35 32 35 42 45 45 26 48 45 45 35 39 32 29 23 26 29 39 32 26 26 10 6 10 0 0 0 0 0 0 0 0 0 0
48 35 45 42 42 39 35 32 26 26 23 23 23 32 26 29 39 35 29 35 39 16 39 23 19 39 35 29 26 13 10 23 10 0 0 0 0 0 0 0 0 0 0
32 32 32 39 42 45 35 23 29 32 32 26 19 23 13 23 19 16 16 19 13 6 16 10 3 3 10 10 6 6 6 16 13 0 0 0 0 0 0 0 0 0 0
23 32 29 29 39 23 13 19 29 23 29 29 26 19 10 13 6 10 0 10 3 6 10 6 3 0 6 3 0 0 0 6 6 3 0 0 0 0 0 0 0 0 0
26 29 23 23 16 10 0 0 6 23 29 26 23 19 16 6 0 0 0 0 0 0 0 6 3 3 0 0 3 3 3 3 3 13 3 3 0 0 0 0 0 0 0
29 26 19 19 23 10 0 0 0 13 23 23 23 23 6 6 6 6 0 0 0 0 0 0 0 0 0 0 0 0 0 3 3 3 0 0 0 0 0 0 0 0 0
32 29 23 23 19 6 0 0 0 0 10 19 16 16 10 6 0 0 6 6 3 3 0 0 0 0 0 0 0 0 0 0 0 3 3 0 0 0 0 0 0 0 0
26 23 19 19 19 3 0 0 0 6 10 6 3 3 3 3 0 0 0 3 3 0 0 0 0 0 0 0 0 0 0 0 0 0 0 0 0 0 3 0 0 0 0
23 19 19 19 16 3 0 0 0 6 3 6 3 0 0 0 0 0 0 0 0 0 0 0 0 0 0 0 0 0 0 0 0 0 0 0 0 0 0 0 3 3 0

GEFSMA_con_cape1000_156.txt.gz
Probability
19 19 16 13 13 10 6 10 10 0 0 6 6 10 6 10 6 19 52 81 77 87 81 77 71 68 68 65 65 68 68 65 65 68 71 55 55 45 26 23 19 26 23
16 16 13 13 6 3 3 3 0 0 0 3 0 3 3 3 6 10 16 65 90 90 87 81 77 74 68 68 65 61 58 61 68 68 68 61 58 52 35 29 26 29 26
10 13 6 10 10 3 3 3 0 3 0 3 3 3 3 3 3 6 10 13 48 84 90 87 84 81 77 68 68 65 58 65 68 68 65 61 61 58 58 42 32 29 32
16 13 10 13 10 6 3 6 3 0 0 0 0 3 0 0 3 3 6 10 13 32 68 90 90 90 74 74 68 71 71 58 65 68 65 68 65 61 61 55 42 32 29
16 13 6 10 6 6 3 3 0 0 0 0 0 0 0 0 3 3 3 3 3 3 13 48 94 100 84 84 77 68 77 71 68 68 65 61 58 65 65 61 61 42 32
26 16 13 3 6 3 0 3 0 0 0 0 0 0 0 0 3 3 3 3 3 3 3 3 29 61 87 94 90 87 84 77 81 68 65 65 65 74 71 65 58 48 45
32 19 19 6 3 3 3 0 0 0 0 0 0 0 0 0 0 0 0 3 3 3 3 3 3 3 6 84 87 90 87 81 77 77 77 77 74 77 65 71 58 45 29
26 29 3 6 3 3 0 0 0 0 0 0 0 0 0 0 0 0 0 0 3 3 6 6 3 3 0 3 10 68 87 81 71 74 81 84 87 77 71 61 45 35 16
23 16 6 6 6 3 0 0 0 0 0 0 0 0 0 0 0 0 0 0 0 0 3 3 3 3 0 0 0 16 68 68 74 65 77 84 74 58 61 58 45 42 29
29 26 16 10 6 3 0 0 0 0 0 0 0 0 0 0 0 0 0 0 0 0 0 3 3 3 3 0 0 0 13 45 61 65 77 81 81 55 52 48 39 39 32
23 26 19 10 6 6 0 0 0 0 0 0 0 0 0 0 0 0 0 0 0 0 0 0 0 0 0 0 0 0 3 10 16 42 71 74 84 71 52 42 29 32 35
16 19 23 6 3 3 0 3 0 0 0 0 0 0 0 0 0 0 0 0 0 0 0 0 0 0 0 0 0 3 3 0 0 3 23 45 58 65 55 45 35 26 29
16 16 23 10 6 6 6 3 0 0 0 0 0 0 0 0 0 0 0 0 0 0 0 0 0 0 0 0 0 0 3 0 0 0 0 3 16 26 32 48 45 42 42
13 13 13 6 10 10 10 3 0 3 0 0 0 0 0 0 0 0 0 0 0 0 0 0 0 0 0 0 0 0 0 0 0 0 0 0 0 0 0 3 13 6 6
3 3 10 10 3 10 13 6 6 3 3 3 3 0 0 0 0 0 0 0 0 0 0 0 0 0 0 0 0 0 0 0 0 0 0 0 0 0 0 0 0 0 0
0 0 6 0 0 10 13 10 10 10 3 6 3 3 0 0 0 0 0 0 0 0 0 0 0 0 0 0 0 0 0 0 0 0 0 0 0 0 0 0 0 0 0
6 6 6 6 3 3 6 3 3 3 3 3 3 3 3 0 0 0 0 0 0 0 0 0 0 0 0 0 0 0 0 0 0 0 0 0 0 0 0 0 0 0 0
13 10 10 10 6 3 3 3 3 3 3 3 0 0 0 0 0 0 0 0 0 0 0 0 0 0 0 0 0 0 0 0 0 0 0 0 0 0 0 0 0 0 0
6 6 6 6 3 3 3 3 3 0 0 0 0 0 0 0 0 0 0 0 0 0 0 0 0 0 0 0 0 0 0 0 0 0 0 0 0 0 0 0 0 0 0
6 6 3 3 3 3 3 3 3 0 0 0 0 0 0 0 0 0 0 0 0 0 0 0 0 0 0 0 0 0 0 0 0 0 0 0 0 0 0 0 0 0 0
6 3 3 3 3 3 3 3 3 0 0 0 0 0 0 0 0 0 0 0 0 0 0 0 0 0 0 0 0 0 0 0 0 0 0 0 0 0 0 0 0 0 0
3 3 3 3 3 0 0 0 0 0 0 0 0 0 0 0 0 0 0 0 0 0 0 0 0 0 0 0 0 0 0 0 0 0 0 0 0 0 0 0 0 0 0
3 3 3 3 0 0 0 0 0 0 0 0 0 0 0 0 0 0 0 0 0 0 0 0 0 0 0 0 0 0 0 0 0 0 0 0 0 0 0 0 0 0 0
0 0 0 0 0 0 0 0 0 0 0 0 0 0 0 0 0 0 0 0 0 0 0 0 0 0 0 0 0 0 0 0 0 0 0 0 0 0 0 0 0 0 0
0 0 0 0 0 0 0 0 0 0 0 0 0 0 0 0 0 0 0 0 0 0 0 0 0 0 0 0 0 0 0 0 0 0 0 0 0 0 0 0 0 0 0
0 0 0 0 0 0 0 0 0 0 0 0 0 0 0 0 0 0 0 0 0 0 0 0 0 0 0 0 0 0 0 0 0 0 0 0 0 0 0 0 0 0 0

GEFSMA_con_cape1000_162.txt.gz
Probability
16 16 13 13 13 16 13 13 10 6 3 10 6 10 10 13 16 32 55 71 77 77 71 68 58 65 68 61 68 61 61 65 61 61 61 52 39 35 26 26 19 26 19
10 3 3 3 3 6 3 6 3 0 0 6 10 10 6 10 16 23 39 61 65 77 74 68 68 68 65 58 61 65 55 52 65 65 55 52 52 32 26 26 26 26 29
6 6 3 3 3 0 3 0 0 0 0 3 3 6 6 6 13 19 23 48 58 68 71 74 77 74 65 61 55 61 58 58 61 68 58 58 55 52 35 35 26 19 23
6 3 3 3 3 0 0 0 0 0 0 3 3 3 0 6 6 6 16 29 32 48 58 68 84 84 81 65 52 55 65 61 71 65 68 58 48 55 42 35 32 29 23
6 6 6 3 0 0 0 0 0 0 0 0 0 0 0 0 6 6 10 10 23 32 42 48 77 81 71 68 58 61 61 65 58 55 39 42 39 58 48 35 35 35 29
13 6 6 3 3 3 0 0 0 0 0 0 0 0 0 0 0 3 3 3 3 6 16 19 52 52 71 84 84 65 61 68 55 61 48 48 39 61 58 42 29 26 29
10 10 10 6 3 3 0 0 0 0 0 0 0 0 0 0 0 0 3 3 3 3 3 6 19 23 29 45 68 77 74 74 68 65 61 68 58 58 55 55 35 26 23
13 10 6 6 3 3 0 0 0 0 0 0 0 0 0 0 0 0 0 0 3 6 6 6 6 13 16 16 16 42 77 77 71 71 74 77 68 65 61 52 42 19 6
13 13 13 6 3 3 0 0 0 0 0 0 0 0 0 0 0 0 0 0 0 3 3 6 6 6 6 10 10 10 39 58 61 58 68 71 68 61 55 55 42 29 16
13 13 10 6 3 3 0 0 0 0 0 0 0 0 0 0 0 0 0 0 0 0 0 3 3 6 6 6 3 0 3 23 42 55 65 71 61 58 52 45 32 29 19
3 10 6 10 6 6 0 0 0 0 0 0 0 0 0 0 0 0 0 0 0 0 0 0 0 3 3 3 6 0 0 0 3 29 48 55 55 58 58 45 32 23 19
3 3 10 10 6 6 3 3 0 0 0 0 0 0 0 0 0 0 0 0 0 0 0 0 0 0 0 0 0 0 0 0 0 0 0 23 42 45 52 42 29 23 19
6 6 6 3 10 6 6 3 3 0 0 0 0 0 0 0 0 0 0 0 0 0 0 0 0 0 0 0 0 0 0 0 0 0 0 0 0 6 23 29 23 23 19
3 3 3 3 10 0 0 6 0 0 0 0 0 0 0 0 0 0 0 0 0 0 0 0 0 0 0 0 0 0 0 0 0 0 0 0 0 0 0 0 0 3 6
0 0 3 3 3 3 3 3 0 0 0 0 0 0 0 0 0 0 0 0 0 0 0 0 0 0 0 0 0 0 0 0 0 0 0 0 0 0 0 0 0 0 0
3 3 3 3 3 3 3 0 3 6 0 0 0 3 3 3 3 0 0 0 0 0 0 0 0 0 0 0 0 0 0 0 0 0 0 0 0 0 0 0 0 0 0
3 3 3 3 3 3 0 0 0 0 3 3 6 6 6 6 3 3 0 0 0 0 0 0 0 0 0 0 0 0 0 0 0 0 0 0 0 0 0 0 0 0 0
3 0 0 0 0 0 3 3 0 0 0 6 3 3 3 3 0 0 0 0 0 0 0 0 0 0 0 0 0 0 0 0 0 0 0 0 0 0 0 0 0 0 0
3 3 0 3 3 3 3 3 3 3 3 3 3 3 3 0 0 0 0 0 0 0 0 0 0 0 0 0 0 0 0 0 0 0 0 0 0 0 0 0 0 0 0
6 6 3 3 6 6 3 3 3 3 3 3 0 0 0 0 0 0 0 0 0 0 0 0 0 0 0 0 0 0 0 0 0 0 0 0 0 0 0 0 0 0 0
6 6 3 3 6 3 3 3 3 0 0 0 0 0 0 0 0 0 0 0 0 0 0 0 0 0 0 0 0 0 0 0 0 0 0 0 0 0 0 0 0 0 0
3 3 3 3 0 3 3 0 0 0 0 0 0 0 0 0 0 0 0 0 0 0 0 0 0 0 0 0 0 0 0 0 0 0 0 0 0 0 0 0 0 0 0
3 3 3 3 0 0 0 0 0 0 0 0 0 0 0 0 0 0 0 0 0 0 0 0 0 0 0 0 0 0 0 0 0 0 0 0 0 0 0 0 0 0 0
3 3 0 0 0 0 0 0 0 0 0 0 0 0 0 0 0 0 0 0 0 0 0 0 0 0 0 0 0 0 0 0 0 0 0 0 0 0 0 0 0 0 0
0 0 0 0 0 0 0 0 0 0 0 0 0 0 0 0 0 0 0 0 0 0 0 0 0 0 0 0 0 0 0 0 0 0 0 0 0 0 0 0 0 0 0
0 0 0 0 0 0 0 0 0 0 0 0 0 0 0 0 0 0 0 0 0 0 0 0 0 0 0 0 0 0 0 0 0 0 0 0 0 0 0 0 0 0 0

GEFSMA_con_cape1000_168.txt.gz
Probability
61 61 74 68 55 45 48 68 42 52 48 35 26 26 29 19 10 19 61 71 74 65 55 55 61 52 48 52 61 61 58 55 58 58 58 55 42 35 29 26 29 19 16
58 65 74 74 45 52 42 42 48 48 48 39 35 32 32 29 35 35 29 71 61 68 65 71 55 65 58 52 52 61 58 55 52 55 48 52 48 32 26 23 23 26 13
71 71 48 68 52 55 52 55 52 39 52 39 39 29 26 29 29 35 26 52 65 55 58 61 68 68 58 58 48 52 61 48 48 45 45 48 39 39 35 26 23 23 16
74 81 61 55 65 58 58 61 35 32 32 42 32 42 48 55 32 32 29 32 45 39 48 61 71 74 58 52 55 55 55 58 48 48 42 39 35 39 35 32 19 16 16
58 74 77 71 71 55 58 52 45 35 35 42 26 55 32 39 35 23 19 19 23 42 52 65 65 71 71 65 52 58 58 71 71 48 42 29 32 32 32 26 19 19 19
68 71 81 74 61 61 65 65 61 65 48 42 3 16 29 29 32 29 16 16 23 16 23 32 45 48 65 71 71 52 61 65 65 52 45 42 35 29 35 26 26 26 26
77 81 68 77 77 61 61 42 45 35 39 45 23 19 26 13 29 35 29 26 19 19 26 39 48 45 61 42 55 74 55 58 58 52 52 48 58 52 52 35 35 23 23
71 71 77 74 74 87 74 68 65 42 32 35 19 23 13 19 26 3 26 32 23 19 29 19 48 55 52 52 32 52 58 61 61 68 52 55 65 58 58 45 32 23 19
71 81 74 74 74 71 68 81 81 68 45 32 35 26 19 23 10 19 26 19 32 19 23 19 32 48 58 48 48 23 48 48 65 65 71 61 58 52 45 39 35 26 19
68 77 77 81 90 77 87 77 45 58 61 42 42 55 32 16 13 13 23 26 39 42 29 19 19 32 48 61 55 23 26 39 42 55 71 71 61 52 39 35 29 23 26
74 68 87 90 94 87 90 84 68 68 52 45 39 35 39 45 29 23 23 26 39 29 32 39 39 35 42 42 61 29 3 6 13 32 45 48 58 58 39 35 26 26 23
68 65 81 87 87 87 87 87 81 71 68 61 55 52 55 39 35 35 23 35 35 26 29 42 32 39 35 45 35 3 3 0 0 0 6 23 42 52 52 48 39 32 23
58 81 68 84 84 90 87 81 84 71 65 74 61 55 52 39 39 32 29 19 19 13 29 19 26 29 19 16 45 3 0 0 0 0 0 0 0 13 26 35 39 29 32
48 58 74 74 81 81 71 77 71 65 74 68 48 61 58 35 29 23 23 19 26 19 23 13 10 26 23 26 10 0 13 0 0 0 0 0 0 0 0 0 3 3 10
48 58 61 61 65 68 74 81 71 71 61 55 45 45 42 42 39 32 29 35 26 13 16 32 19 29 26 48 10 13 29 3 0 0 0 0 0 0 0 0 0 0 0
55 55 55 55 55 55 58 74 65 58 52 48 52 48 48 35 39 32 26 23 23 23 6 13 32 10 35 0 3 26 32 0 0 0 0 0 0 0 0 0 0 0 0
52 55 48 45 45 42 39 45 39 32 29 39 35 35 45 42 32 35 35 29 23 13 10 13 16 32 42 35 19 26 19 26 6 0 0 0 0 0 0 0 0 0 0
39 42 45 42 39 35 35 29 19 23 23 23 26 29 32 32 39 32 32 26 23 23 16 10 19 23 23 32 35 42 10 3 6 0 0 0 0 0 0 0 0 0 0
26 26 32 35 32 29 26 23 19 19 16 19 16 19 23 29 32 29 29 26 16 0 13 6 10 19 13 10 16 13 3 10 3 0 0 0 0 0 0 0 0 0 0
23 23 19 23 23 23 23 19 19 19 19 13 19 16 23 19 16 13 16 16 16 16 19 13 6 13 19 13 19 16 16 13 6 0 0 0 0 0 0 0 0 0 0
13 23 16 19 19 23 19 19 19 19 23 13 19 13 10 6 0 0 3 10 6 16 10 6 6 3 10 19 16 13 6 13 6 3 3 3 0 0 0 0 0 0 0
16 16 16 13 13 10 6 3 6 10 16 13 16 19 10 3 0 0 0 0 0 3 3 13 10 6 16 6 10 6 6 6 3 3 3 0 6 6 6 3 0 0 0
19 16 13 13 13 10 0 0 0 3 10 16 16 16 10 0 0 0 0 0 0 0 0 10 6 3 10 10 16 10 13 10 6 0 3 3 0 0 0 0 0 0 0
19 16 10 6 6 3 0 0 0 0 10 10 13 13 10 6 3 0 3 3 3 3 0 0 6 10 10 10 10 13 13 10 10 10 3 3 3 0 0 0 0 0 0
10 6 6 3 3 3 0 0 0 0 6 6 10 10 10 6 0 0 0 0 0 3 0 0 0 0 0 0 3 6 6 6 6 6 3 3 0 0 0 0 0 0 0
10 6 3 3 3 3 0 0 0 3 3 6 6 3 3 3 0 0 3 0 3 3 0 0 0 0 0 0 0 0 6 6 3 3 6 6 0 0 0 0 0 0 0

GEFSMA_con_cape1000_174.txt.gz
Probability
81 77 84 90 87 90 94 87 87 81 68 55 45 39 26 32 42 39 29 71 71 71 65 52 48 42 45 48 55 58 52 42 48 52 58 45 32 26 23 26 23 29 16
81 84 81 84 87 87 90 97 84 74 77 77 68 45 45 42 68 55 39 65 74 74 71 58 45 29 42 39 48 45 42 42 39 52 52 58 45 39 23 19 19 23 19
74 74 84 81 84 87 94 94 90 81 84 81 74 65 68 61 58 65 52 48 48 74 84 81 68 55 39 45 48 52 45 52 52 42 52 55 58 52 39 23 16 29 26
74 74 77 81 84 87 94 100 94 94 81 81 81 77 74 84 77 74 68 68 55 23 55 77 81 77 55 52 55 58 55 55 58 52 45 42 42 42 48 42 23 29 29
84 77 81 84 87 90 97 77 90 90 90 84 74 71 81 84 90 52 58 65 71 65 23 55 77 84 74 65 65 68 65 58 52 48 45 32 42 45 45 35 32 29 26
81 84 87 84 84 90 94 94 97 94 90 90 39 45 65 68 84 74 55 39 35 39 35 29 45 55 77 84 84 77 71 68 52 48 39 29 35 42 48 39 29 23 26
84 84 84 87 87 90 94 90 81 77 74 84 77 61 65 52 48 55 65 42 29 35 45 55 23 29 26 77 84 84 84 77 68 65 52 52 42 42 42 35 29 23 23
90 74 84 84 90 84 84 87 81 77 71 77 77 52 42 39 55 19 45 48 35 29 32 35 48 68 39 23 13 71 94 87 81 68 65 58 52 52 45 39 35 23 19
81 90 87 87 90 81 84 87 84 81 71 68 77 55 32 26 29 39 42 29 45 52 35 35 45 58 58 42 23 16 68 74 77 65 65 65 42 42 39 32 32 26 19
84 84 87 87 81 77 81 81 84 77 84 65 68 65 52 61 26 23 35 35 39 42 32 23 26 48 52 61 61 29 32 45 58 68 68 71 52 39 32 26 29 35 35
87 81 90 84 81 81 84 87 81 77 74 68 58 61 48 58 48 23 6 16 23 29 32 35 26 39 42 39 52 35 13 13 16 55 65 68 65 52 42 32 26 32 29
87 81 81 87 87 84 81 84 87 87 81 71 71 58 55 42 39 23 16 13 10 23 26 35 39 48 42 32 29 29 6 6 3 6 13 45 58 61 55 42 42 26 23
81 81 77 87 90 87 84 77 81 84 84 71 61 55 58 58 52 45 29 13 19 23 39 35 35 48 32 29 26 13 3 3 0 0 3 3 6 29 35 39 45 29 26
68 71 77 77 81 77 74 81 71 74 68 61 45 48 48 48 42 48 45 23 10 3 19 16 32 29 32 23 29 3 3 0 0 0 0 0 0 0 3 3 10 10 13
68 71 68 68 68 71 71 61 58 48 55 52 52 48 42 42 45 48 45 35 16 0 0 23 35 35 39 26 10 3 19 0 0 0 0 0 0 0 0 0 0 0 0
71 61 65 65 58 55 55 58 61 52 45 52 52 48 52 42 39 42 42 32 26 10 6 16 29 19 16 6 3 10 19 0 0 0 0 0 0 0 0 0 0 0 0
68 68 65 55 48 45 48 52 52 42 42 35 35 32 35 32 29 39 32 29 23 10 10 6 10 19 26 16 6 19 13 6 0 0 0 0 0 0 0 0 0 0 0
48 45 55 42 39 45 42 42 29 26 29 29 23 26 26 19 23 26 23 19 26 23 19 10 10 16 19 19 13 13 6 3 3 0 0 0 0 0 0 0 0 0 0
39 32 35 35 32 32 29 32 26 23 23 23 23 19 19 16 19 16 16 16 16 10 16 10 6 10 16 10 16 6 3 0 0 0 0 0 0 0 0 0 0 0 0
29 29 32 32 29 29 26 23 23 23 23 19 19 13 16 19 16 16 16 16 19 10 10 6 6 3 3 10 6 0 0 6 0 0 0 0 0 0 0 0 0 0 0
29 29 26 26 26 16 10 10 10 13 19 19 16 16 16 13 10 3 3 6 6 10 3 0 3 3 3 3 3 0 0 0 3 0 0 0 0 0 0 0 0 0 0
19 16 16 16 13 6 6 3 6 6 13 13 10 10 16 10 0 0 0 0 3 3 3 0 3 3 3 0 3 0 0 0 0 0 0 0 0 0 0 0 0 0 0
16 16 16 16 6 6 6 0 0 10 10 10 6 6 0 0 0 6 0 0 0 0 0 0 0 0 0 0 3 3 0 0 0 0 0 0 0 0 0 0 0 0 0
13 16 10 6 10 6 3 0 0 3 6 3 3 6 10 6 0 6 0 0 3 3 3 0 0 0 0 3 0 0 0 0 3 3 3 0 0 3 0 0 0 0 0
13 13 6 10 6 3 3 0 0 6 6 3 3 3 6 3 3 0 3 0 0 0 0 0 0 0 0 3 3 0 3 0 0 0 3 0 0 0 0 3 0 0 0
16 6 6 6 3 3 3 0 0 3 3 3 3 3 3 3 3 0 0 0 0 0 0 0 0 0 0 0 0 3 3 0 0 0 0 0 0 0 0 0 3 0 0

GEFSMA_con_cape1000_180.txt.gz
Probability
13 6 3 3 6 10 3 6 6 6 6 3 3 6 6 3 3 6 19 74 77 81 68 68 61 58 58 55 58 61 52 42 45 42 45 42 39 32 26 29 23 16 19
3 10 10 10 10 6 10 10 3 6 3 3 0 6 0 3 3 3 10 58 84 81 81 71 74 65 52 52 45 48 48 45 48 48 42 39 35 26 29 23 29 19 16
13 10 13 10 10 10 6 6 6 0 0 3 0 3 0 3 3 3 6 10 26 81 77 81 81 84 65 48 48 39 42 52 45 55 55 45 39 35 32 26 29 32 26
16 10 10 6 10 6 6 3 3 0 0 0 0 0 3 3 3 3 6 3 6 13 58 77 81 77 77 68 65 55 45 48 55 52 52 45 35 32 35 32 35 35 19
26 16 10 6 10 3 3 3 3 0 0 0 0 0 0 0 0 6 3 3 3 3 6 35 87 77 65 77 74 68 61 55 52 45 35 29 35 35 35 26 29 32 26
23 19 6 16 10 6 6 6 3 3 3 0 0 0 0 0 0 0 3 3 3 0 0 3 23 39 74 84 84 84 74 68 55 45 35 23 23 35 29 26 26 29 26
16 16 13 10 6 6 10 10 6 6 6 3 3 3 3 0 0 0 0 0 0 0 0 0 0 0 10 68 81 87 84 71 71 48 45 39 35 42 35 26 19 19 19
19 19 13 6 6 6 6 6 6 6 6 3 3 3 0 0 0 0 0 0 0 0 0 0 0 0 0 3 6 58 65 68 71 61 55 52 48 42 29 23 19 13 16
19 23 16 6 6 6 10 3 6 6 6 6 0 0 0 0 0 0 0 0 0 0 0 3 0 0 0 0 0 6 48 58 68 65 55 45 39 32 19 13 13 10 10
23 19 13 16 13 13 10 10 6 6 3 3 0 0 0 0 0 0 0 0 0 0 0 0 0 0 0 0 0 0 16 39 55 71 65 52 35 29 26 23 13 13 13
13 13 13 13 13 13 13 13 13 6 6 3 3 0 0 0 0 0 0 0 0 0 0 0 0 0 3 0 0 0 3 3 19 35 58 58 48 35 29 26 29 23 19
10 16 16 10 10 13 13 13 10 6 3 3 3 0 0 0 0 0 0 0 0 0 0 0 0 0 0 0 0 0 0 0 3 10 16 23 42 42 26 29 26 23 23
13 13 16 6 6 6 6 6 6 10 6 6 6 3 3 3 0 0 0 0 0 0 0 0 0 0 3 0 0 0 0 0 0 0 0 6 10 16 16 19 19 16 16
13 6 10 6 10 10 13 6 6 10 10 10 10 3 3 3 3 3 3 3 3 0 0 0 0 0 0 0 0 0 0 0 0 0 0 0 0 0 0 6 6 6 6
10 10 10 6 6 10 13 10 6 6 10 6 6 6 6 10 6 3 3 3 3 3 3 0 0 0 0 0 0 0 3 0 0 0 0 0 0 0 0 0 0 0 0
13 13 13 13 13 13 19 10 6 10 6 6 6 6 3 3 3 3 3 3 3 3 3 0 0 0 0 3 0 0 0 0 0 0 0 0 0 0 0 0 0 0 0
13 10 10 13 13 10 10 10 6 6 6 0 0 0 0 0 0 0 0 0 0 3 0 0 0 0 0 0 0 0 0 0 0 0 0 0 0 0 0 0 0 0 0
13 13 13 13 10 13 6 6 0 6 3 6 0 0 0 0 0 0 0 0 0 0 0 0 0 0 0 0 0 0 0 0 0 0 0 0 0 0 0 0 0 0 0
13 6 6 6 3 3 6 3 0 0 0 0 0 0 0 0 0 0 0 0 0 0 0 0 0 0 0 0 0 0 0 0 0 0 0 0 0 0 0 0 0 0 0
10 10 6 6 6 6 6 6 0 0 0 0 0 0 0 0 0 0 0 0 0 0 0 0 0 0 0 0 0 0 0 0 0 0 0 0 0 0 0 0 0 0 0
10 6 6 6 6 6 6 3 3 0 0 0 0 0 0 0 0 0 0 0 0 0 0 0 0 0 0 0 0 0 0 0 0 0 0 0 0 0 0 0 0 0 0
3 3 6 6 6 6 6 3 3 3 0 0 0 0 0 0 0 0 0 0 0 0 0 0 0 0 0 0 0 0 0 0 0 0 0 0 0 0 0 0 0 0 0
3 3 3 3 3 3 3 3 3 0 0 0 0 0 0 0 0 0 0 0 0 0 0 0 0 0 0 0 0 0 0 0 0 0 0 0 0 0 0 0 0 0 0
0 3 3 3 3 3 3 3 0 0 0 0 0 0 0 0 0 0 0 0 0 0 0 0 0 0 0 0 0 0 0 0 0 0 0 0 0 0 0 0 0 0 0
0 0 0 0 0 0 0 0 0 0 0 0 0 0 0 0 0 0 0 0 0 0 0 0 0 0 0 0 0 0 0 0 0 0 0 0 0 0 0 0 0 0 0
0 0 0 0 0 0 0 0 0 0 0 0 0 0 0 0 0 0 0 0 0 0 0 0 0 0 0 0 0 0 0 0 0 0 0 0 0 0 0 0 0 0 0

GEFSMA_con_cape1000_186.txt.gz
Probability
6 3 6 3 3 3 3 3 6 6 3 3 6 6 6 3 3 6 23 52 71 74 68 55 58 58 52 48 42 39 32 32 42 48 45 29 26 23 16 19 13 13 10
0 3 3 0 3 3 6 10 3 6 3 3 10 6 6 3 3 3 10 42 65 71 71 61 55 52 61 45 45 48 42 39 35 42 45 39 32 29 23 19 19 16 13
3 3 3 3 3 3 3 0 3 3 3 3 3 6 3 3 3 3 10 19 45 65 71 71 68 61 55 58 52 55 48 39 39 42 45 45 42 35 26 23 19 16 16
6 3 3 3 3 3 3 0 0 3 3 3 3 0 0 0 3 3 3 6 13 23 58 65 74 81 68 65 61 55 58 48 48 42 32 32 35 39 29 29 19 23 16
6 6 3 6 3 3 3 3 0 3 3 3 0 0 0 0 0 0 3 3 3 3 10 29 61 81 68 58 58 58 68 52 42 39 35 23 19 29 26 26 23 19 16
13 6 0 3 3 3 3 3 3 3 3 3 0 0 0 0 0 0 0 3 3 3 3 6 19 45 52 68 68 68 65 65 45 42 32 35 23 26 29 26 16 16 19
13 6 10 3 6 3 3 0 3 6 3 3 0 0 0 0 0 0 0 0 0 3 3 3 3 6 16 32 48 55 52 48 55 35 39 35 35 32 32 26 16 16 13
13 13 3 3 3 3 3 3 0 0 0 0 0 0 0 0 0 0 0 0 0 0 0 0 0 3 3 3 0 23 48 55 55 39 42 39 32 23 19 16 13 13 13
6 10 6 3 3 3 3 3 3 3 3 3 0 0 0 0 0 0 0 0 0 0 0 0 0 0 3 3 6 10 32 48 52 48 55 58 35 19 19 16 16 10 10
0 3 3 0 3 3 3 3 3 3 3 3 3 0 0 0 0 0 0 0 0 0 0 0 0 0 0 0 0 0 10 26 35 39 48 52 42 26 23 19 16 13 10
3 3 3 3 0 0 3 3 3 3 3 3 3 3 0 0 0 0 3 0 0 0 0 0 0 0 0 0 0 0 0 3 10 29 35 39 39 35 26 13 16 13 13
0 0 0 0 0 0 0 3 3 3 3 3 3 3 3 3 0 0 3 3 3 3 3 3 0 0 3 0 0 0 0 0 0 3 10 19 29 35 35 32 16 16 13
0 0 3 0 0 0 3 3 3 3 3 3 3 3 3 3 3 3 3 3 3 3 3 3 3 3 0 6 3 0 0 0 0 0 0 6 6 13 19 16 19 16 13
0 0 3 3 3 3 3 3 3 3 3 3 3 3 3 3 3 3 3 3 3 3 3 3 3 3 0 0 0 0 3 0 0 0 0 0 0 6 6 6 6 3 10
3 6 6 6 3 3 3 0 0 0 0 0 0 0 0 0 0 0 0 3 3 0 0 0 3 3 0 0 0 0 3 0 0 0 0 0 0 0 0 0 0 0 0
3 13 13 6 3 3 3 0 0 0 0 0 0 0 0 0 0 0 0 0 0 0 0 0 0 0 0 0 0 0 0 0 0 0 0 0 0 0 0 0 0 0 0
13 10 6 6 3 0 0 0 0 0 0 0 0 0 0 0 0 0 0 0 0 0 0 0 3 0 0 0 0 0 3 0 0 0 0 0 0 0 0 0 0 0 0
6 6 3 0 3 3 0 0 0 0 0 0 0 0 0 0 0 0 0 0 0 0 0 0 0 0 0 0 0 0 0 0 0 0 0 0 0 0 0 0 0 0 0
6 3 3 3 3 0 0 0 0 0 0 0 0 0 0 0 0 0 0 0 0 0 0 0 0 0 0 0 0 0 0 0 0 0 0 0 0 0 0 0 0 0 0
3 3 3 3 3 3 3 3 0 0 0 0 0 0 0 0 0 0 0 0 0 0 0 0 0 0 0 0 0 0 0 0 0 0 0 0 0 0 0 0 0 0 0
3 3 3 3 3 3 3 3 3 3 0 0 0 0 0 0 0 0 0 0 0 0 0 0 0 0 0 0 0 0 0 0 0 0 0 0 0 0 0 0 0 0 0
3 3 3 3 3 3 0 0 0 3 0 0 0 0 0 0 0 0 0 0 0 0 0 0 0 0 0 0 0 0 0 0 0 0 0 0 0 0 0 0 0 0 0
0 0 0 0 0 0 0 0 0 0 0 0 0 0 0 0 0 0 0 0 0 0 0 0 0 0 0 0 0 0 0 0 0 0 0 0 0 0 0 0 0 0 0
0 0 0 0 0 0 0 0 0 0 0 0 0 0 0 0 0 0 0 0 0 0 0 0 0 0 0 0 0 0 0 0 0 0 0 0 0 0 0 0 0 0 0
0 0 0 0 0 0 0 0 0 0 0 0 0 0 0 0 0 0 0 0 0 0 0 0 0 0 0 0 0 0 0 0 0 0 0 0 0 0 0 0 0 0 0
0 0 0 0 0 0 0 0 0 0 0 0 0 0 0 0 0 0 0 0 0 0 0 0 0 0 0 0 0 0 0 0 0 0 0 0 0 0 0 0 0 0 0

GEFSMA_con_cape1000_192.txt.gz
Probability
39 42 48 55 39 42 42 45 32 32 32 35 19 19 13 10 6 6 39 52 58 65 65 48 52 48 32 32 29 29 23 29 35 39 32 29 19 19 19 19 23 23 19
42 42 45 52 48 45 48 55 29 35 32 32 26 26 23 23 19 23 23 35 45 52 55 58 58 55 48 48 42 39 35 29 29 39 35 29 26 19 13 13 19 19 13
58 52 45 48 48 42 45 55 39 29 32 29 26 26 29 35 29 29 23 29 29 45 48 58 52 55 58 61 48 52 45 39 48 35 32 32 32 35 26 19 19 23 10
58 74 55 45 58 48 52 61 42 39 35 32 35 32 35 55 35 29 23 26 29 19 35 58 58 55 55 58 58 58 48 45 42 42 32 29 23 29 32 29 19 16 13
68 61 58 68 65 52 55 45 45 42 42 48 29 48 35 42 48 23 26 23 16 23 32 55 58 55 52 48 55 55 48 55 42 39 26 23 19 23 29 26 26 16 13
65 58 55 61 48 52 55 55 65 68 68 65 19 23 35 26 42 29 26 19 29 16 13 23 52 42 52 58 58 52 42 52 52 45 29 26 29 19 23 19 19 19 13
61 74 42 58 58 55 55 45 52 55 52 61 52 39 29 19 29 48 32 29 16 19 26 26 39 42 48 42 48 52 45 52 48 48 42 32 29 29 26 16 10 13 10
52 39 65 68 58 74 77 65 71 65 45 45 58 42 29 29 42 3 26 42 29 29 26 26 39 55 48 48 26 29 52 55 55 45 48 39 35 26 26 23 13 3 3
52 65 61 52 71 61 61 68 71 65 55 55 45 35 32 32 29 16 19 29 35 42 42 29 32 42 42 52 48 19 39 42 42 48 58 52 48 26 19 16 16 6 3
58 55 65 61 58 61 74 68 58 58 61 61 55 58 45 35 42 32 16 23 32 35 35 19 19 29 32 42 42 19 13 16 19 29 42 48 48 26 16 13 16 13 13
61 58 61 61 55 61 71 77 71 61 58 65 74 71 61 61 45 45 16 23 19 16 23 26 26 26 29 35 48 29 3 3 10 13 29 32 29 32 23 19 19 19 16
68 52 52 61 61 68 74 68 65 65 74 74 71 65 61 48 55 48 39 45 35 26 19 26 29 29 19 19 16 13 6 0 0 0 10 23 19 23 23 23 23 23 19
45 65 52 58 58 65 68 74 68 68 61 71 65 58 52 52 48 48 39 35 29 26 26 29 23 29 16 19 29 6 3 0 0 0 0 3 3 13 16 16 19 16 16
45 52 52 52 52 52 48 61 65 65 68 68 55 61 55 39 58 52 52 39 32 23 19 19 23 26 29 29 10 0 6 0 0 0 0 0 3 3 3 10 10 10 10
48 45 45 48 52 45 45 48 65 65 65 58 45 48 42 35 29 35 32 35 32 10 16 13 32 26 32 19 10 13 16 6 0 0 0 0 0 0 0 0 0 0 0
48 45 42 39 39 42 39 45 39 42 35 35 35 35 35 26 26 19 23 23 29 29 16 6 16 6 13 3 10 19 23 3 0 0 0 0 0 0 0 0 0 0 0
42 35 32 35 32 32 29 35 35 32 29 32 26 29 32 29 26 19 19 19 26 26 16 6 3 13 16 19 19 16 16 19 19 0 0 0 0 0 0 0 0 0 0
39 35 29 29 26 26 23 23 23 26 29 29 26 29 26 19 26 19 19 16 26 26 16 6 13 13 13 13 13 13 13 3 13 0 0 0 0 0 0 0 0 0 0
26 23 26 26 26 26 23 23 19 16 16 19 19 19 16 13 19 19 23 19 19 3 13 3 3 10 13 13 13 13 10 13 3 0 0 0 0 0 0 0 0 0 0
23 23 23 26 23 26 16 16 19 19 19 16 16 10 10 10 10 16 16 13 10 13 10 3 0 3 6 3 6 10 6 6 6 0 3 0 0 0 0 0 0 0 0
16 23 23 19 13 10 6 10 10 10 16 16 10 10 10 3 3 6 0 6 6 6 6 3 3 3 3 6 6 3 3 6 6 6 6 0 0 0 0 0 0 0 0
10 16 10 10 10 3 3 0 3 10 13 10 10 6 6 3 3 0 0 0 0 6 6 3 0 3 10 3 3 3 3 3 3 3 3 3 0 0 0 0 0 0 0
6 6 6 6 10 3 0 0 0 3 10 10 10 10 3 0 3 3 0 0 0 0 0 6 0 6 10 6 6 3 3 3 3 3 3 3 3 3 3 0 0 0 0
6 10 10 6 6 3 0 0 0 0 3 0 0 6 3 3 3 3 3 3 3 0 0 0 3 6 6 10 6 6 3 3 3 3 0 0 3 0 0 0 0 0 0
6 6 6 6 6 3 0 0 0 0 0 0 0 0 0 0 0 0 0 3 0 0 0 0 0 0 0 0 0 0 3 3 3 3 0 0 0 0 0 0 0 0 0
6 6 6 6 6 6 0 0 0 0 3 0 0 0 0 0 0 0 0 3 0 0 0 0 0 0 0 0 0 0 0 3 3 0 0 0 0 0 0 0 0 0 0

GEFSMA_con_cape1000_198.txt.gz
Probability
84 77 87 94 84 84 81 87 84 68 55 58 35 29 23 26 23 29 19 58 61 71 61 52 55 42 32 23 26 26 23 19 23 35 39 32 29 23 16 19 19 16 13
84 81 77 81 84 81 81 84 84 84 71 74 55 35 39 35 35 35 26 55 68 65 68 61 52 45 39 35 39 35 32 35 29 35 32 35 32 23 26 23 13 16 19
71 81 87 90 87 90 90 90 94 87 81 68 61 65 61 65 39 48 35 29 29 55 68 65 61 58 48 39 42 35 35 42 45 39 39 39 42 35 29 26 23 16 19
81 87 84 90 87 90 90 90 90 90 94 87 74 71 74 81 68 48 45 48 32 13 42 61 61 65 61 58 55 48 52 48 55 42 45 42 32 32 32 23 23 19 23
71 81 87 87 81 84 94 61 81 87 81 81 74 81 74 77 71 48 55 45 42 32 19 45 65 68 61 65 65 55 55 55 61 45 29 29 26 29 29 29 26 23 13
74 81 81 81 77 84 97 94 87 84 81 84 42 48 58 61 65 68 48 35 39 32 26 13 23 42 61 74 68 68 58 48 58 48 39 29 29 26 23 23 19 19 13
84 81 77 77 84 87 90 94 84 81 81 84 81 68 58 48 55 65 61 52 32 35 29 32 19 23 23 42 48 61 58 58 52 48 45 42 35 29 26 29 23 19 13
87 65 81 87 87 94 87 81 87 81 81 81 77 61 45 39 52 19 45 52 42 35 39 35 45 52 39 26 10 29 55 52 48 48 45 45 42 29 19 19 16 13 10
81 81 71 84 87 81 81 81 81 81 77 77 77 71 48 26 35 42 35 35 45 48 42 35 35 29 19 23 23 3 29 35 42 42 48 42 32 19 16 16 13 13 13
84 77 81 84 84 81 81 77 81 84 77 77 77 74 61 58 42 26 29 23 26 35 29 19 13 16 23 23 19 19 19 16 32 39 45 42 39 29 19 16 13 13 10
84 77 77 84 87 81 77 77 77 74 74 74 74 65 52 52 45 29 13 16 16 26 23 23 16 16 19 26 23 13 16 6 6 23 26 35 35 32 26 23 19 19 23
77 74 71 77 77 74 71 74 77 81 74 74 65 65 65 52 48 39 26 26 23 19 19 19 26 19 23 26 23 19 16 3 3 3 6 16 19 26 26 23 26 23 23
74 74 71 71 74 77 77 74 77 71 68 61 58 55 58 55 52 48 42 35 16 10 16 16 26 26 16 16 16 3 6 0 0 0 3 3 6 16 16 16 19 19 16
74 71 68 65 68 74 71 65 65 61 58 55 48 55 42 42 39 26 32 32 3 3 6 6 23 23 13 16 3 0 10 0 0 0 0 0 0 0 0 10 10 13 13
65 61 61 61 55 58 58 52 45 45 48 42 39 39 35 32 42 35 26 23 13 6 3 6 10 13 16 6 3 6 16 3 0 0 0 0 0 0 0 0 0 0 0
65 58 48 45 45 45 45 48 39 35 39 32 32 32 35 39 35 35 35 32 26 16 6 6 10 10 6 3 3 10 6 0 0 0 0 0 0 0 0 0 0 0 0
58 48 42 39 35 35 32 39 29 29 26 26 26 23 26 32 29 35 26 32 29 13 10 13 10 6 6 6 0 3 3 3 0 0 0 0 0 0 0 0 0 0 0
42 39 35 35 35 29 29 26 23 19 16 16 16 16 19 19 26 29 29 29 26 19 10 6 6 3 3 6 6 6 6 3 3 0 0 0 0 0 0 0 0 0 0
42 39 35 32 29 29 23 19 23 19 16 19 13 16 16 13 16 16 26 19 23 13 13 6 3 3 3 3 3 3 3 3 3 0 0 0 0 0 0 0 0 0 0
42 39 39 29 26 19 13 13 16 10 13 13 13 16 16 10 10 16 13 13 16 10 10 6 3 3 3 3 3 3 3 3 3 0 0 0 0 0 0 0 0 0 0
32 35 26 23 19 13 6 10 10 6 10 10 13 10 10 6 6 6 0 10 10 10 6 3 3 3 3 3 3 3 3 3 3 3 0 0 0 0 0 0 0 0 0
26 23 19 13 6 6 3 3 6 10 10 6 6 3 0 0 0 0 0 0 0 6 3 3 3 0 0 6 3 3 3 3 3 3 3 0 0 0 0 0 0 0 0
19 13 10 10 10 10 6 3 3 6 13 13 10 0 0 0 0 0 0 0 0 0 0 3 0 3 0 3 0 3 0 0 3 3 3 0 0 0 0 0 0 0 0
16 10 10 10 6 6 3 0 0 3 13 10 6 10 0 0 0 0 0 0 0 0 0 0 0 0 0 3 0 0 0 0 3 3 3 0 0 0 0 0 0 0 0
10 10 10 10 6 6 3 0 0 3 10 10 10 3 0 0 0 0 0 0 0 0 0 0 0 0 0 0 0 0 0 0 0 0 0 0 0 0 0 0 0 0 0
13 10 10 10 6 6 3 0 0 3 6 10 6 3 0 0 0 0 0 0 0 0 0 0 0 0 0 0 0 0 0 0 0 0 0 0 0 0 0 0 0 0 0